• In Netherlands
  • List of Countries
  • For 7 days
  • Water Temperature
  • Satellite Maps
  • Weather Map
  • Weather Widgets
  • user-avatar
    Login

    Hourly Weather Konstantyna

    Today, 24 May, Thursday

    Time Temperature Precipitation Wind Pressure Humidity
    00:00 +18°C° 0 mm 1 mps 711 mmHg 77%
    01:00 +18°C° 0 mm 1 mps 711 mmHg 76%
    02:00 +18°C° 0 mm 1 mps 711 mmHg 75%
    03:00 +18°C° 0 mm 1 mps 711 mmHg 74%
    04:00 +18°C° 0 mm 2 mps 711 mmHg 69%
    05:00 +20°C° 0 mm 2 mps 711 mmHg 64%
    06:00 +21°C° 0 mm 2 mps 711 mmHg 60%
    07:00 +24°C° 0 mm 2 mps 711 mmHg 52%
    08:00 +26°C° 0 mm 2 mps 712 mmHg 43%
    09:00 +29°C° 0 mm 3 mps 712 mmHg 35%
    10:00 +30°C° 0 mm 3 mps 712 mmHg 33%
    11:00 +31°C° 0 mm 2 mps 712 mmHg 31%
    12:00 +32°C° 0 mm 2 mps 712 mmHg 28%
    13:00 +32°C° 0 mm 2 mps 711 mmHg 30%
    14:00 +33°C° 0 mm 3 mps 711 mmHg 32%
    15:00 +31°C° 0 mm 3 mps 711 mmHg 33%
    16:00 +30°C° 0 mm 2 mps 711 mmHg 41%
    17:00 +28°C° 0 mm 2 mps 710 mmHg 50%
    18:00 +27°C° 0 mm 2 mps 710 mmHg 58%
    19:00 +26°C° 0 mm 2 mps 710 mmHg 61%
    20:00 +24°C° 0 mm 2 mps 710 mmHg 64%
    21:00 +23°C° 0 mm 1 mps 711 mmHg 67%
    22:00 +23°C° 0 mm 1 mps 710 mmHg 67%
    23:00 +23°C° 0 mm 1 mps 710 mmHg 66%

    Tomorrow, 25 May, Friday

    Time Temperature Precipitation Wind Pressure Humidity
    00:00 +23°C° 0 mm 2 mps 710 mmHg 65%
    01:00 +21°C° 0 mm 2 mps 709 mmHg 64%
    02:00 +21°C° 0 mm 2 mps 709 mmHg 63%
    03:00 +21°C° 0 mm 2 mps 709 mmHg 62%
    04:00 +23°C° 0 mm 2 mps 709 mmHg 59%
    05:00 +24°C° 0 mm 2 mps 709 mmHg 57%
    06:00 +25°C° 0 mm 2 mps 709 mmHg 54%
    07:00 +27°C° 0 mm 2 mps 710 mmHg 46%
    08:00 +29°C° 0 mm 3 mps 710 mmHg 38%
    09:00 +31°C° 0 mm 3 mps 710 mmHg 30%
    10:00 +34°C° 0 mm 3 mps 710 mmHg 27%
    11:00 +35°C° 0 mm 3 mps 710 mmHg 24%
    12:00 +36°C° 0 mm 4 mps 710 mmHg 21%
    13:00 +36°C° 0 mm 3 mps 710 mmHg 21%
    14:00 +36°C° 0 mm 3 mps 710 mmHg 21%
    15:00 +36°C° 0 mm 3 mps 709 mmHg 21%
    16:00 +34°C° 0 mm 3 mps 709 mmHg 28%
    17:00 +31°C° 0 mm 3 mps 709 mmHg 35%
    18:00 +29°C° 0 mm 3 mps 709 mmHg 43%
    19:00 +28°C° 0 mm 2 mps 709 mmHg 45%
    20:00 +26°C° 0 mm 2 mps 709 mmHg 48%
    21:00 +25°C° 0 mm 1 mps 709 mmHg 50%
    22:00 +24°C° 0 mm 1 mps 709 mmHg 50%
    23:00 +24°C° 0 mm 1 mps 709 mmHg 50%

    Day after tomorrow, 26 May, Saturday

    Time Temperature Precipitation Wind Pressure Humidity
    00:00 +23°C° 0 mm 1 mps 708 mmHg 50%
    01:00 +23°C° 0 mm 1 mps 708 mmHg 50%
    02:00 +22°C° 0 mm 1 mps 708 mmHg 51%
    03:00 +22°C° 0 mm 1 mps 708 mmHg 51%
    04:00 +23°C° 0 mm 1 mps 708 mmHg 51%
    05:00 +24°C° 0 mm 1 mps 709 mmHg 50%
    06:00 +25°C° 0 mm 1 mps 709 mmHg 50%
    07:00 +27°C° 0 mm 2 mps 709 mmHg 42%
    08:00 +30°C° 0 mm 3 mps 710 mmHg 35%
    09:00 +33°C° 0 mm 4 mps 710 mmHg 28%
    10:00 +34°C° 0 mm 4 mps 710 mmHg 26%
    11:00 +35°C° 0 mm 4 mps 710 mmHg 24%
    12:00 +36°C° 0 mm 4 mps 710 mmHg 22%
    13:00 +36°C° 0 mm 4 mps 710 mmHg 23%
    14:00 +36°C° 0 mm 4 mps 710 mmHg 24%
    15:00 +36°C° 0 mm 4 mps 710 mmHg 25%
    16:00 +34°C° 0 mm 3 mps 709 mmHg 32%
    17:00 +31°C° 0 mm 2 mps 709 mmHg 39%
    18:00 +29°C° 0 mm 2 mps 709 mmHg 46%
    19:00 +28°C° 0 mm 2 mps 709 mmHg 46%
    20:00 +27°C° 0 mm 1 mps 709 mmHg 46%
    21:00 +26°C° 0 mm 1 mps 709 mmHg 47%
    22:00 +26°C° 0 mm 1 mps 709 mmHg 44%
    23:00 +26°C° 0 mm 2 mps 709 mmHg 42%

    27 May, Sunday

    Time Temperature Precipitation Wind Pressure Humidity
    00:00 +26°C° 0 mm 2 mps 709 mmHg 39%
    01:00 +26°C° 0.1 mm 2 mps 709 mmHg 42%
    02:00 +25°C° 0.1 mm 2 mps 709 mmHg 45%
    03:00 +25°C° 0.1 mm 2 mps 709 mmHg 48%
    04:00 +25°C° 0.1 mm 1 mps 709 mmHg 50%
    05:00 +25°C° 0.1 mm 1 mps 709 mmHg 53%
    06:00 +25°C° 0.1 mm 1 mps 709 mmHg 55%
    07:00 +27°C° 0 mm 2 mps 710 mmHg 49%
    08:00 +29°C° 0 mm 2 mps 710 mmHg 42%
    09:00 +31°C° 0 mm 2 mps 710 mmHg 36%
    10:00 +33°C° 0 mm 3 mps 710 mmHg 33%
    11:00 +34°C° 0 mm 3 mps 710 mmHg 30%
    12:00 +36°C° 0 mm 4 mps 710 mmHg 28%
    13:00 +36°C° 0 mm 4 mps 710 mmHg 28%
    14:00 +36°C° 0 mm 4 mps 709 mmHg 28%
    15:00 +36°C° 0 mm 4 mps 708 mmHg 29%
    16:00 +34°C° 0 mm 3 mps 708 mmHg 35%
    17:00 +33°C° 0 mm 3 mps 708 mmHg 41%
    18:00 +31°C° 0 mm 2 mps 708 mmHg 47%
    19:00 +29°C° 0.1 mm 2 mps 708 mmHg 51%
    20:00 +27°C° 0.1 mm 2 mps 708 mmHg 55%
    21:00 +25°C° 0.1 mm 2 mps 708 mmHg 59%
    22:00 +24°C° 0 mm 2 mps 708 mmHg 64%
    23:00 +23°C° 0 mm 2 mps 708 mmHg 68%

    28 May, Monday

    Time Temperature Precipitation Wind Pressure Humidity
    00:00 +21°C° 0 mm 2 mps 707 mmHg 73%
    01:00 +21°C° 0 mm 2 mps 707 mmHg 74%
    02:00 +21°C° 0 mm 2 mps 707 mmHg 74%
    03:00 +20°C° 0 mm 2 mps 707 mmHg 75%
    04:00 +21°C° 0 mm 2 mps 707 mmHg 73%
    05:00 +21°C° 0 mm 2 mps 707 mmHg 71%
    06:00 +23°C° 0 mm 2 mps 708 mmHg 69%
    07:00 +25°C° 0 mm 3 mps 708 mmHg 59%
    08:00 +28°C° 0 mm 4 mps 708 mmHg 48%
    09:00 +32°C° 0 mm 5 mps 708 mmHg 38%
    10:00 +32°C° 0 mm 5 mps 708 mmHg 37%
    11:00 +33°C° 0 mm 5 mps 708 mmHg 36%
    12:00 +34°C° 0 mm 6 mps 708 mmHg 34%
    13:00 +33°C° 0 mm 5 mps 708 mmHg 40%
    14:00 +30°C° 0 mm 5 mps 708 mmHg 45%
    15:00 +29°C° 0 mm 5 mps 707 mmHg 51%
    16:00 +27°C° 0 mm 4 mps 707 mmHg 58%
    17:00 +26°C° 0 mm 4 mps 707 mmHg 65%
    18:00 +24°C° 0 mm 3 mps 707 mmHg 71%
    19:00 +22°C° 0 mm 3 mps 707 mmHg 76%
    20:00 +21°C° 0 mm 3 mps 708 mmHg 81%
    21:00 +19°C° 0 mm 3 mps 708 mmHg 86%
    22:00 +19°C° 0 mm 2 mps 708 mmHg 87%
    23:00 +19°C° 0 mm 2 mps 708 mmHg 87%

    29 May, Tuesday

    Time Temperature Precipitation Wind Pressure Humidity
    00:00 +18°C° 0 mm 2 mps 708 mmHg 88%
    01:00 +18°C° 0 mm 2 mps 708 mmHg 89%
    02:00 +18°C° 0 mm 2 mps 708 mmHg 90%
    03:00 +18°C° 0 mm 1 mps 708 mmHg 91%
    04:00 +19°C° 0 mm 1 mps 708 mmHg 90%
    05:00 +18°C° 0 mm 2 mps 708 mmHg 89%
    06:00 +18°C° 0 mm 2 mps 708 mmHg 87%
    07:00 +19°C° 0 mm 2 mps 709 mmHg 81%
    08:00 +20°C° 0 mm 2 mps 709 mmHg 75%
    09:00 +21°C° 0 mm 2 mps 709 mmHg 68%
    10:00 +24°C° 0 mm 2 mps 709 mmHg 64%
    11:00 +25°C° 0 mm 3 mps 709 mmHg 60%
    12:00 +26°C° 0 mm 3 mps 709 mmHg 55%
    13:00 +26°C° 0 mm 3 mps 709 mmHg 56%
    14:00 +27°C° 0 mm 4 mps 708 mmHg 57%
    15:00 +27°C° 0 mm 5 mps 708 mmHg 58%
    16:00 +25°C° 0 mm 4 mps 708 mmHg 65%
    17:00 +23°C° 0 mm 4 mps 708 mmHg 72%
    18:00 +21°C° 0 mm 4 mps 708 mmHg 80%
    19:00 +20°C° 0.1 mm 3 mps 708 mmHg 82%
    20:00 +20°C° 0.1 mm 2 mps 708 mmHg 84%
    21:00 +19°C° 0.1 mm 2 mps 709 mmHg 87%
    22:00 +19°C° 0.1 mm 1 mps 709 mmHg 88%
    23:00 +19°C° 0.1 mm 1 mps 709 mmHg 89%
    Show more